This is the latest recevied weather packets stored in our database for station/object K4HOG. If no packets are shown the sender has not sent any weather packets the latest 10 day(s).
| Time | Temp. | Humidity | Pressure | Rain* | Wind** | Luminosity | Snow |
|---|---|---|---|---|---|---|---|
| 1777548957 | 20° C | 99% | 1011.8 hPa | 0 mm | - | 32 W/m² | - |
| 1777548654 | 19.44° C | 99% | 1011.6 hPa | 0 mm | - | 30 W/m² | - |
| 1777548351 | 19.44° C | 99% | 1011.7 hPa | 0 mm | - | 25 W/m² | - |
| 1777548049 | 19.44° C | 99% | 1011.6 hPa | 0 mm | - | 19 W/m² | - |
| 1777547744 | 19.44° C | 99% | 1011.5 hPa | 0 mm | - | 15 W/m² | - |
| 1777547440 | 19.44° C | 99% | 1011.6 hPa | 0 mm | - | 11 W/m² | - |
| 1777547138 | 19.44° C | 99% | 1011.7 hPa | 0 mm | - | 7 W/m² | - |
| 1777546835 | 19.44° C | 99% | 1011.6 hPa | 0 mm | - | 5 W/m² | - |
| 1777546532 | 19.44° C | 99% | 1011.4 hPa | 0 mm | - | 3 W/m² | - |
| 1777546229 | 19.44° C | 99% | 1011.2 hPa | 0 mm | - | 2 W/m² | - |
| 1777545926 | 19.44° C | 98% | 1011.2 hPa | 0 mm | - | 1 W/m² | - |
| 1777545622 | 19.44° C | 98% | 1011.3 hPa | 0 mm | - | 0 W/m² | - |
| 1777545319 | 19.44° C | 99% | 1011.3 hPa | 0 mm | - | 0 W/m² | - |
| 1777545017 | 19.44° C | 98% | 1011.3 hPa | 0 mm | - | 0 W/m² | - |
| 1777544713 | 19.44° C | 99% | 1011.1 hPa | 0 mm | - | 0 W/m² | - |
| 1777544409 | 19.44° C | 98% | 1011.1 hPa | 0 mm | - | 0 W/m² | - |
| 1777544105 | 19.44° C | 98% | 1011.1 hPa | 0 mm | - | 0 W/m² | - |
| 1777543803 | 19.44° C | 98% | 1011.1 hPa | 0 mm | - | 0 W/m² | - |
| 1777543498 | 19.44° C | 98% | 1010.7 hPa | 0 mm | - | 0 W/m² | - |
| 1777543195 | 19.44° C | 98% | 1010.5 hPa | 0 mm | - | 0 W/m² | - |
| 1777542891 | 19.44° C | 98% | 1010.7 hPa | 0 mm | - | 0 W/m² | - |
| 1777542588 | 19.44° C | 98% | 1010.5 hPa | 0 mm | - | 0 W/m² | - |
| 1777542284 | 19.44° C | 98% | 1010.6 hPa | 0 mm | - | 0 W/m² | - |
| 1777541981 | 19.44° C | 98% | 1010.7 hPa | 0 mm | - | 0 W/m² | - |
| 1777541678 | 19.44° C | 98% | 1011 hPa | 0 mm | - | 0 W/m² | - |
* Rain latest hour (hover to see other rain measurements)
** Current wind speed in m/s (hover to see current wind gust speed)